Location: Unspecified
(42.9300°N, 71.1866°W)
Time: 03:17:33
(UTC-04:00)

CZ-3 Stage 3 - Visible Passes

Search period start: 23 May 2015 00:00
Search period end: 02 June 2015 00:00
Orbit: 418 x 34809 km, 30.9° (Epoch: 17 May)

Date Brightness Start Highest point End Pass type
(mag) Time Alt. Az. Time Alt. Az. Time Alt. Az.
25 May 8.0 04:15:44 10° E 04:19:17 11° E 12:48:24 10° E visible
28 May 7.9 04:04:40 10° ESE 04:12:58 12° E 12:43:36 10° ESE visible
31 May 7.7 03:54:58 10° ESE 04:06:38 13° E 12:38:43 10° ESE visible
